Overview Statistics Trail Chart Weather Telemetry Raw packets
 

This is the latest recevied weather packets stored in our database for station/object 4S6DRJ-13. If no packets are shown the sender has not sent any weather packets the latest 10 day(s).

<< 486 487 488 489 490 491 492 >>
Time Temp. Humidity Pressure Rain* Wind** Luminosity Snow
1787709937 27.78° C 86% 1010.6 hPa 0 mm 0.89 m/s, 169° 284 W/m² -
1787709876 27.78° C 86% 1010.6 hPa 0 mm 0.89 m/s, 220° 257 W/m² -
1787709815 27.78° C 87% 1010.6 hPa 0 mm 0.45 m/s, 167° 233 W/m² -
1787709754 27.78° C 87% 1010.6 hPa 0 mm 0 m/s 228 W/m² -
1787709693 27.78° C 87% 1010.5 hPa 0 mm 0.89 m/s, 194° 210 W/m² -
1787709632 27.78° C 87% 1010.7 hPa 0 mm 0 m/s 201 W/m² -
1787709571 27.78° C 87% 1010.6 hPa 0 mm 0.45 m/s, 181° 185 W/m² -
1787709510 27.78° C 87% 1010.5 hPa 0 mm 0.45 m/s, 227° 166 W/m² -
1787709449 27.78° C 87% 1010.6 hPa 0 mm 0.89 m/s, 188° 146 W/m² -
1787709388 27.22° C 86% 1010.7 hPa 0 mm 0.89 m/s, 209° 129 W/m² -
1787709327 27.22° C 87% 1010.7 hPa 0 mm 0.45 m/s, 150° 121 W/m² -
1787709266 27.22° C 87% 1010.4 hPa 0 mm 0.45 m/s, 215° 108 W/m² -
1787709208 27.22° C 87% 1010.7 hPa 0 mm 1.79 m/s, 228° 102 W/m² -
1787709144 27.22° C 87% 1010.4 hPa 0 mm 0.45 m/s, 148° 104 W/m² -
1787709083 27.22° C 87% 1010.5 hPa 0 mm 1.79 m/s, 226° 97 W/m² -
1787709023 27.22° C 87% 1010.7 hPa 0 mm 1.79 m/s, 202° 95 W/m² -
1787708961 27.22° C 87% 1010.3 hPa 0 mm 1.79 m/s, 202° 92 W/m² -
1787708900 27.22° C 87% 1010.6 hPa 0 mm 0.45 m/s, 260° 92 W/m² -
1787708839 27.22° C 87% 1010.5 hPa 0 mm 0.89 m/s, 209° 94 W/m² -
1787708778 27.22° C 87% 1010.6 hPa 0 mm 0.45 m/s, 182° 88 W/m² -
1787708717 27.22° C 87% 1010.6 hPa 0 mm 1.34 m/s, 188° 81 W/m² -
1787708656 27.22° C 87% 1010.7 hPa 0 mm 2.24 m/s, 231° 78 W/m² -
1787708595 27.22° C 87% 1010.4 hPa 0 mm 0.89 m/s, 200° 79 W/m² -
1787708534 27.22° C 87% 1010.6 hPa 0 mm 2.24 m/s, 166° 78 W/m² -
1787708473 27.22° C 87% 1010.7 hPa 0 mm 1.79 m/s, 229° 75 W/m² -

* Rain latest hour (hover to see other rain measurements)
** Current wind speed in m/s (hover to see current wind gust speed)